[[{"header":{"parameterUnit":"m.s-1","parameterCategory":2,"la1":30.2992,"la2":30.254,"lo1":-89.0895,"lo2":-89.0443,"dy":0.0025,"dx":0.0025,"nx":19,"ny":19,"refTime":"2026-03-26T21:00:00:Z","depth":"0","parameterNumber":2,"parameterNumberName":"U-component_of_CURRENTS"},"data":[0,0,0,-0.1528,-0.1528,-0.1537,-0.1537,-0.1516,-0.1516,0,0,0,0,0,0,0,0,0,0,0,-0.152,-0.1521,-0.1528,-0.1528,-0.1537,-0.1537,-0.1516,-0.1516,0,0,0,0,0,0,0,0,0,0,0,-0.152,-0.1521,-0.1521,-0.1528,-0.1537,-0.1537,-0.1516,-0.1516,0,0,0,0,0,0,0,0,0,0,-0.1511,-0.1504,-0.1521,-0.1521,-0.1528,-0.1537,-0.1537,-0.1516,-0.1516,-0.1505,0,-0.1509,0,-0.1516,-0.1514,-0.1514,0,0,0,-0.1522,-0.1504,-0.1516,-0.1521,-0.1529,-0.1537,-0.1531,-0.1516,-0.1516,-0.1505,-0.1509,-0.1508,-0.1516,-0.1514,-0.1514,-0.1489,-0.1489,0,0,-0.1521,-0.1512,-0.1516,-0.1516,-0.1533,-0.1531,-0.1531,-0.1516,-0.1511,-0.1509,-0.1508,-0.1515,-0.1514,-0.1514,-0.1489,-0.1489,0,0,0,-0.1524,-0.1511,-0.1523,-0.1516,-0.1523,-0.1531,-0.1532,-0.1511,-0.1518,-0.1508,-0.1515,-0.1514,-0.1514,-0.1489,-0.1489,-0.1495,0,0,0,-0.1524,-0.1514,-0.1523,-0.1516,-0.1523,-0.152,-0.1527,-0.1519,-0.1518,-0.1515,-0.1514,-0.1513,-0.1489,-0.1489,-0.1495,-0.1493,0,0,0,-0.152,-0.1513,-0.1517,-0.1516,-0.1524,-0.1521,-0.1526,-0.1519,-0.1522,-0.1514,-0.1513,-0.1489,-0.1489,-0.1495,-0.1493,-0.1518,0,0,0,-0.1505,-0.1499,-0.1517,-0.1511,-0.1524,-0.1525,-0.1526,-0.152,-0.1512,-0.1514,-0.1489,-0.1489,-0.1495,-0.1493,-0.1517,-0.1636,-0.1647,0,0,-0.1489,-0.1497,-0.1494,-0.1511,-0.1508,-0.1523,-0.1516,-0.1508,-0.1504,-0.1491,-0.1491,-0.1495,-0.1493,-0.1518,-0.1621,-0.1632,0,0,0,-0.1483,-0.1479,-0.1482,-0.1486,-0.1497,-0.1505,-0.1504,-0.1508,-0.15,-0.1501,-0.1488,-0.1487,-0.1502,-0.1572,-0.1581,-0.1765,-0.1488,-0.1488,-0.1488,-0.1429,-0.1448,-0.144,-0.1462,-0.1468,-0.1487,-0.1495,-0.1497,-0.1493,-0.1492,-0.1487,-0.15,-0.1575,-0.1583,-0.1771,-0.1483,-0.1483,-0.1483,-0.1483,-0.139,-0.1379,-0.1411,-0.141,-0.1436,-0.1436,-0.1472,-0.1483,-0.1499,-0.1487,-0.1503,-0.1569,-0.1594,-0.179,-0.1484,-0.1483,-0.1483,-0.1483,-0.1483,-0.1338,-0.1336,-0.1349,-0.1353,-0.1367,-0.14,-0.1432,-0.146,-0.1494,-0.1509,-0.1599,-0.16,-0.1779,-0.1521,-0.1521,-0.1521,-0.1521,-0.1521,-0.1521,-0.1272,-0.1289,-0.1271,-0.129,-0.129,-0.1318,-0.1402,-0.1456,-0.1564,-0.1613,-0.1614,-0.1818,-0.1512,-0.1518,-0.1523,-0.1523,-0.1522,-0.1522,-0.1522,-0.1193,-0.1202,-0.1176,-0.1171,-0.1189,-0.1259,-0.1356,-0.157,-0.1635,-0.1722,-0.1983,-0.1682,-0.1695,-0.1689,-0.1699,-0.175,-0.175,-0.175,-0.175,-0.1124,-0.1132,-0.1086,-0.107,-0.109,-0.1216,-0.1472,-0.1733,-0.2017,-0.2169,-0.218,-0.2227,-0.2209,-0.2254,-0.2236,-0.2257,-0.2449,-0.245,-0.2451,-0.1059,-0.106,-0.1005,-0.1007,-0.1037,-0.1208,-0.1555,-0.2085,-0.2444,-0.2493,-0.2415,-0.2385,-0.2463,-0.2421,-0.2493,-0.2452,-0.2486,0,0]},{"header":{"parameterUnit":"m.s-1","parameterCategory":2,"la1":30.2992,"la2":30.254,"lo1":-89.0895,"lo2":-89.0443,"dy":0.0025,"dx":0.0025,"nx":19,"ny":19,"refTime":"2026-03-26T21:00:00:Z","depth":"0","parameterNumber":3,"parameterNumberName":"V-component_of_CURRENTS"},"data":[0,0,0,-0.0646,-0.0645,-0.0537,-0.0536,-0.0368,-0.0367,0,0,0,0,0,0,0,0,0,0,0,-0.0682,-0.0681,-0.0647,-0.0644,-0.0537,-0.0536,-0.0368,-0.0367,0,0,0,0,0,0,0,0,0,0,0,-0.0682,-0.0682,-0.0681,-0.0644,-0.0537,-0.0536,-0.0369,-0.0454,0,0,0,0,0,0,0,0,0,0,-0.0561,-0.0609,-0.0682,-0.0681,-0.0644,-0.0537,-0.0536,-0.0458,-0.0449,-0.0413,0,-0.0404,0,-0.0388,-0.0356,-0.0356,0,0,0,-0.0629,-0.0617,-0.0585,-0.0681,-0.0643,-0.0537,-0.0581,-0.0453,-0.0442,-0.04,-0.0402,-0.0395,-0.0385,-0.0355,-0.0354,-0.0245,-0.0245,0,0,-0.0635,-0.066,-0.0593,-0.0579,-0.0623,-0.0585,-0.0578,-0.0447,-0.044,-0.0401,-0.0392,-0.0382,-0.0354,-0.0353,-0.0245,-0.0245,0,0,0,-0.0663,-0.0664,-0.0636,-0.0586,-0.0572,-0.0582,-0.0574,-0.0445,-0.0436,-0.039,-0.038,-0.0353,-0.0351,-0.0245,-0.0245,-0.0302,0,0,0,-0.0665,-0.0681,-0.0639,-0.0652,-0.0575,-0.0513,-0.0576,-0.0444,-0.0429,-0.0381,-0.0353,-0.035,-0.0245,-0.0245,-0.03,-0.0335,0,0,0,-0.0685,-0.0683,-0.0673,-0.0654,-0.0614,-0.0515,-0.0497,-0.0441,-0.0424,-0.0356,-0.0349,-0.0245,-0.0245,-0.0299,-0.0332,-0.0344,0,0,0,-0.071,-0.0707,-0.0674,-0.0663,-0.0615,-0.0552,-0.0498,-0.0438,-0.0385,-0.0352,-0.0245,-0.0245,-0.0299,-0.033,-0.0342,-0.044,-0.0455,0,0,-0.0723,-0.071,-0.0703,-0.0671,-0.0635,-0.0566,-0.0516,-0.0425,-0.0371,-0.0283,-0.028,-0.0301,-0.0332,-0.0343,-0.0437,-0.0453,0,0,0,-0.0718,-0.0714,-0.0695,-0.0667,-0.061,-0.056,-0.047,-0.0426,-0.035,-0.0341,-0.0284,-0.0301,-0.0307,-0.0362,-0.0374,-0.0327,-0.0245,-0.0245,-0.0245,-0.0765,-0.0735,-0.0722,-0.0676,-0.0635,-0.0545,-0.0498,-0.0422,-0.0361,-0.0342,-0.0335,-0.0366,-0.0425,-0.0435,-0.0385,-0.0314,-0.0314,-0.0314,-0.0314,-0.0795,-0.0791,-0.0749,-0.0727,-0.0668,-0.0619,-0.0517,-0.0472,-0.0406,-0.0364,-0.0366,-0.0403,-0.0452,-0.0394,-0.0318,-0.0317,-0.0317,-0.0316,-0.0316,-0.0834,-0.0829,-0.0812,-0.078,-0.0744,-0.0665,-0.0639,-0.0549,-0.0469,-0.0464,-0.05,-0.05,-0.0459,-0.0458,-0.0458,-0.0458,-0.0459,-0.0459,-0.0459,-0.0885,-0.0866,-0.0862,-0.0829,-0.0815,-0.0786,-0.0703,-0.0673,-0.062,-0.0573,-0.0574,-0.0471,-0.041,-0.0416,-0.0462,-0.0462,-0.0461,-0.0461,-0.0461,-0.0925,-0.0913,-0.0913,-0.0905,-0.0889,-0.096,-0.0872,-0.0867,-0.0799,-0.0801,-0.064,-0.0622,-0.0612,-0.0602,-0.0612,-0.0706,-0.0706,-0.0706,-0.0706,-0.095,-0.0945,-0.095,-0.0957,-0.0982,-0.1032,-0.12,-0.118,-0.0957,-0.0838,-0.0712,-0.0697,-0.0689,-0.0679,-0.0668,-0.0678,-0.0785,-0.0785,-0.0785,-0.0963,-0.0966,-0.0979,-0.0985,-0.1025,-0.1164,-0.1429,-0.1555,-0.1115,-0.0777,-0.0625,-0.0622,-0.0583,-0.0574,-0.0544,-0.0532,-0.0541,0,0]}],[{"header":{"parameterUnit":"m.s-1","parameterCategory":2,"la1":30.2992,"la2":30.254,"lo1":-89.0895,"lo2":-89.0443,"dy":0.0025,"dx":0.0025,"nx":19,"ny":19,"refTime":"2026-03-26T21:00:00:Z","depth":"2","parameterNumber":2,"parameterNumberName":"U-component_of_CURRENTS"},"data":[0,0,0,-0.1511,-0.1512,-0.152,-0.152,-0.15,-0.15,0,0,0,0,0,0,0,0,0,0,0,-0.1504,-0.1504,-0.1511,-0.1512,-0.152,-0.152,-0.15,-0.15,0,0,0,0,0,0,0,0,0,0,0,-0.1504,-0.1504,-0.1504,-0.1512,-0.152,-0.152,-0.15,-0.15,0,0,0,0,0,0,0,0,0,0,-0.1495,-0.1488,-0.1504,-0.1504,-0.1512,-0.152,-0.152,-0.15,-0.15,-0.1489,0,-0.1493,0,-0.15,-0.1498,-0.1498,0,0,0,-0.1505,-0.1488,-0.1499,-0.1504,-0.1512,-0.152,-0.1515,-0.15,-0.15,-0.1489,-0.1492,-0.1492,-0.1499,-0.1498,-0.1498,-0.1473,-0.1473,0,0,-0.1505,-0.1496,-0.15,-0.1499,-0.1516,-0.1514,-0.1515,-0.15,-0.1495,-0.1492,-0.1492,-0.1499,-0.1498,-0.1498,-0.1473,-0.1473,0,0,0,-0.1508,-0.1495,-0.1507,-0.15,-0.1506,-0.1515,-0.1515,-0.1495,-0.1502,-0.1492,-0.1499,-0.1498,-0.1497,-0.1473,-0.1473,-0.1479,0,0,0,-0.1507,-0.1498,-0.1507,-0.15,-0.1507,-0.1503,-0.151,-0.1503,-0.1501,-0.1499,-0.1498,-0.1497,-0.1473,-0.1473,-0.1479,-0.1477,0,0,0,-0.1503,-0.1497,-0.1501,-0.1499,-0.1508,-0.1504,-0.1509,-0.1503,-0.1506,-0.1498,-0.1497,-0.1474,-0.1473,-0.1479,-0.1477,-0.1502,0,0,0,-0.1489,-0.1483,-0.15,-0.1494,-0.1508,-0.1508,-0.151,-0.1503,-0.1496,-0.1498,-0.1473,-0.1473,-0.1479,-0.1478,-0.1501,-0.1594,-0.1603,0,0,-0.1472,-0.148,-0.1477,-0.1494,-0.1491,-0.1506,-0.15,-0.1492,-0.1488,-0.1475,-0.1475,-0.1479,-0.1477,-0.1502,-0.1579,-0.1589,0,0,0,-0.1466,-0.1463,-0.1465,-0.1469,-0.148,-0.1488,-0.1488,-0.1491,-0.1484,-0.1485,-0.1472,-0.1471,-0.1486,-0.1541,-0.1548,-0.1472,-0.1472,-0.1472,-0.1472,-0.1412,-0.1432,-0.1423,-0.1445,-0.1451,-0.147,-0.1478,-0.1481,-0.1477,-0.1476,-0.1471,-0.1485,-0.1543,-0.1549,-0.1468,-0.1468,-0.1468,-0.1468,-0.1468,-0.1374,-0.1362,-0.1395,-0.1393,-0.142,-0.1419,-0.1456,-0.1467,-0.1484,-0.1472,-0.1487,-0.1538,-0.1558,-0.1468,-0.1468,-0.1468,-0.1468,-0.1468,-0.1468,-0.1322,-0.132,-0.1333,-0.1337,-0.1351,-0.1383,-0.1416,-0.1444,-0.1478,-0.1493,-0.1566,-0.1567,-0.15,-0.1505,-0.1506,-0.1506,-0.1506,-0.1506,-0.1506,-0.1255,-0.1273,-0.1255,-0.1274,-0.1274,-0.1302,-0.1386,-0.1439,-0.1537,-0.1577,-0.1578,-0.1498,-0.1497,-0.1502,-0.1507,-0.1507,-0.1507,-0.1507,-0.1507,-0.1176,-0.1185,-0.116,-0.1155,-0.1173,-0.1208,-0.133,-0.1534,-0.1603,-0.1682,-0.1638,-0.1635,-0.1645,-0.1641,-0.165,-0.1692,-0.1692,-0.1692,-0.1692,-0.1107,-0.1115,-0.1069,-0.1054,-0.1073,-0.1155,-0.1321,-0.146,-0.1601,-0.1613,-0.1615,-0.1609,-0.1606,-0.1612,-0.1608,-0.1615,-0.1648,-0.1647,-0.1647,-0.1042,-0.1043,-0.0988,-0.0991,-0.102,-0.1112,-0.127,-0.1405,-0.154,-0.1632,-0.1474,-0.1715,-0.1716,-0.1707,-0.1723,-0.1714,-0.1728,0,0]},{"header":{"parameterUnit":"m.s-1","parameterCategory":2,"la1":30.2992,"la2":30.254,"lo1":-89.0895,"lo2":-89.0443,"dy":0.0025,"dx":0.0025,"nx":19,"ny":19,"refTime":"2026-03-26T21:00:00:Z","depth":"2","parameterNumber":3,"parameterNumberName":"V-component_of_CURRENTS"},"data":[0,0,0,-0.0593,-0.0591,-0.0485,-0.0484,-0.0317,-0.0316,0,0,0,0,0,0,0,0,0,0,0,-0.0628,-0.0628,-0.0593,-0.0591,-0.0485,-0.0484,-0.0318,-0.0316,0,0,0,0,0,0,0,0,0,0,0,-0.0628,-0.0628,-0.0627,-0.0591,-0.0485,-0.0484,-0.0318,-0.0402,0,0,0,0,0,0,0,0,0,0,-0.0508,-0.0556,-0.0628,-0.0627,-0.059,-0.0485,-0.0484,-0.0407,-0.0397,-0.0361,0,-0.0352,0,-0.0336,-0.0306,-0.0305,0,0,0,-0.0576,-0.0564,-0.0532,-0.0627,-0.059,-0.0485,-0.0529,-0.0401,-0.0391,-0.0349,-0.035,-0.0344,-0.0333,-0.0305,-0.0304,-0.0195,-0.0195,0,0,-0.0582,-0.0607,-0.054,-0.0526,-0.057,-0.0532,-0.0526,-0.0395,-0.0388,-0.0349,-0.034,-0.0331,-0.0303,-0.0302,-0.0195,-0.0195,0,0,0,-0.0609,-0.0611,-0.0583,-0.0533,-0.0519,-0.053,-0.0522,-0.0394,-0.0384,-0.0338,-0.0329,-0.0303,-0.0301,-0.0195,-0.0195,-0.0252,0,0,0,-0.0612,-0.0627,-0.0586,-0.0599,-0.0522,-0.0461,-0.0524,-0.0393,-0.0378,-0.0329,-0.0303,-0.0299,-0.0195,-0.0195,-0.0251,-0.0285,0,0,0,-0.0632,-0.0629,-0.0619,-0.06,-0.0561,-0.0463,-0.0445,-0.0389,-0.0372,-0.0305,-0.0299,-0.0195,-0.0195,-0.0249,-0.0282,-0.0293,0,0,0,-0.0656,-0.0653,-0.062,-0.061,-0.0562,-0.05,-0.0446,-0.0387,-0.0334,-0.0302,-0.0195,-0.0195,-0.0249,-0.0281,-0.0292,-0.0355,-0.0368,0,0,-0.0669,-0.0655,-0.0649,-0.0617,-0.0581,-0.0513,-0.0464,-0.0374,-0.0321,-0.0233,-0.023,-0.0251,-0.0282,-0.0293,-0.0353,-0.0366,0,0,0,-0.0663,-0.066,-0.0641,-0.0613,-0.0557,-0.0507,-0.0418,-0.0375,-0.03,-0.0291,-0.0234,-0.0252,-0.0257,-0.0291,-0.0301,-0.0195,-0.0195,-0.0195,-0.0195,-0.0711,-0.068,-0.0667,-0.0622,-0.0581,-0.0492,-0.0447,-0.0371,-0.0311,-0.0293,-0.0286,-0.0317,-0.0353,-0.0362,-0.0264,-0.0265,-0.0265,-0.0265,-0.0265,-0.074,-0.0736,-0.0695,-0.0673,-0.0615,-0.0567,-0.0465,-0.0421,-0.0356,-0.0315,-0.0317,-0.0334,-0.0377,-0.0269,-0.0269,-0.0268,-0.0268,-0.0267,-0.0267,-0.0779,-0.0774,-0.0758,-0.0727,-0.0691,-0.0613,-0.0588,-0.0499,-0.0419,-0.0414,-0.0428,-0.0427,-0.036,-0.0409,-0.0409,-0.0409,-0.041,-0.041,-0.041,-0.083,-0.0811,-0.0808,-0.0776,-0.0762,-0.0734,-0.0653,-0.0622,-0.0556,-0.0498,-0.0498,-0.0365,-0.036,-0.0367,-0.0413,-0.0413,-0.0412,-0.0412,-0.0412,-0.0869,-0.0857,-0.0859,-0.0852,-0.0836,-0.0851,-0.0805,-0.0788,-0.0729,-0.0721,-0.0535,-0.0531,-0.0517,-0.0509,-0.0518,-0.06,-0.06,-0.06,-0.0601,-0.0894,-0.0888,-0.0895,-0.0902,-0.0927,-0.0904,-0.0966,-0.0822,-0.067,-0.0536,-0.0537,-0.0511,-0.0507,-0.0489,-0.0481,-0.0487,-0.0561,-0.0561,-0.056,-0.0906,-0.091,-0.0923,-0.0931,-0.097,-0.0979,-0.1014,-0.0845,-0.0593,-0.0549,-0.0427,-0.0618,-0.0586,-0.0576,-0.055,-0.0536,-0.0547,0,0]}],[{"header":{"parameterUnit":"m.s-1","parameterCategory":2,"la1":30.2992,"la2":30.254,"lo1":-89.0895,"lo2":-89.0443,"dy":0.0025,"dx":0.0025,"nx":19,"ny":19,"refTime":"2026-03-26T21:00:00:Z","depth":"4","parameterNumber":2,"parameterNumberName":"U-component_of_CURRENTS"},"data":[0,0,0,-0.0954,-0.0956,-0.1056,-0.1056,-0.1102,-0.1102,0,0,0,0,0,0,0,0,0,0,0,-0.0919,-0.092,-0.0954,-0.0956,-0.1056,-0.1056,-0.1102,-0.1102,0,0,0,0,0,0,0,0,0,0,0,-0.0919,-0.092,-0.0921,-0.0957,-0.1056,-0.1056,-0.1102,-0.1046,0,0,0,0,0,0,0,0,0,0,-0.0958,-0.0939,-0.092,-0.0921,-0.0957,-0.1056,-0.1056,-0.1044,-0.1049,-0.1035,0,-0.1061,0,-0.1084,-0.1104,-0.1104,0,0,0,-0.095,-0.0935,-0.0964,-0.0921,-0.0958,-0.1056,-0.1009,-0.1047,-0.1053,-0.1042,-0.1062,-0.1064,-0.1085,-0.1104,-0.1104,-0.1134,-0.1134,0,0,-0.0945,-0.0931,-0.0961,-0.0969,-0.0996,-0.1006,-0.1012,-0.1052,-0.1059,-0.1062,-0.1066,-0.1086,-0.1104,-0.1105,-0.1134,-0.1134,0,0,0,-0.0933,-0.0927,-0.0958,-0.0966,-0.0992,-0.1009,-0.1016,-0.1057,-0.1069,-0.1066,-0.1086,-0.1105,-0.1105,-0.1134,-0.1134,-0.1138,0,0,0,-0.0929,-0.0921,-0.0955,-0.0947,-0.0992,-0.1037,-0.1021,-0.1066,-0.1072,-0.1086,-0.1105,-0.1105,-0.1133,-0.1134,-0.1138,-0.1132,0,0,0,-0.0913,-0.0919,-0.0935,-0.0946,-0.0993,-0.1037,-0.1051,-0.1068,-0.1083,-0.1104,-0.1105,-0.1133,-0.1134,-0.1137,-0.1131,-0.1155,0,0,0,-0.0888,-0.0903,-0.0935,-0.0959,-0.0992,-0.1041,-0.1051,-0.1089,-0.1108,-0.1105,-0.1134,-0.1134,-0.1137,-0.1131,-0.1154,-0.1061,0,0,0,-0.0886,-0.0903,-0.0916,-0.0946,-0.0986,-0.1027,-0.1063,-0.1094,-0.1105,-0.1113,-0.1115,-0.1138,-0.1131,-0.1155,-0.1079,0,0,0,0,-0.0901,-0.091,-0.0929,-0.0965,-0.101,-0.1051,-0.109,-0.1107,-0.1133,-0.1121,-0.1143,-0.1138,-0.1153,-0.1097,-0.1135,-0.1135,-0.1135,-0.1135,-0.1135,-0.0859,-0.0893,-0.0916,-0.0963,-0.1002,-0.1068,-0.1098,-0.1127,-0.1136,-0.115,-0.1146,-0.117,-0.1111,-0.1155,-0.1155,-0.1155,-0.1155,-0.1155,-0.1155,-0.0832,-0.0839,-0.0899,-0.0933,-0.0994,-0.1033,-0.11,-0.1122,-0.1161,-0.1157,-0.1172,-0.111,-0.1155,-0.1155,-0.1155,-0.1155,-0.1155,-0.1155,-0.1155,-0.078,-0.079,-0.0829,-0.0884,-0.094,-0.101,-0.1057,-0.1109,-0.1156,-0.1174,-0.1129,-0.1178,-0.1174,-0.1189,-0.119,-0.119,-0.119,-0.119,-0.119,-0.0705,-0.0747,-0.0766,-0.0832,-0.0864,-0.0922,-0.1031,-0.1077,-0.1143,-0.1121,-0.1179,-0.1182,-0.1181,-0.1176,-0.1191,-0.1191,-0.1191,-0.1191,-0.119,-0.0625,-0.0663,-0.068,-0.0709,-0.078,-0.0816,-0.0938,-0.1037,-0.108,-0.1095,-0.1099,-0.1104,-0.1096,-0.1097,-0.1089,-0.1079,-0.1077,-0.1076,0,-0.0564,-0.0586,-0.0605,-0.0629,-0.0661,-0.0749,-0.0809,-0.0904,-0.0985,-0.0946,-0.1058,-0.1057,-0.1061,-0.1046,-0.1046,-0.1032,0,0,0,-0.0504,-0.0528,-0.0514,-0.0568,-0.06,-0.0705,-0.0821,-0.0842,-0.0963,-0.1018,-0.1048,-0.1055,-0.1151,-0.1195,-0.1193,-0.1192,-0.1185,0,0]},{"header":{"parameterUnit":"m.s-1","parameterCategory":2,"la1":30.2992,"la2":30.254,"lo1":-89.0895,"lo2":-89.0443,"dy":0.0025,"dx":0.0025,"nx":19,"ny":19,"refTime":"2026-03-26T21:00:00:Z","depth":"4","parameterNumber":3,"parameterNumberName":"V-component_of_CURRENTS"},"data":[0,0,0,0.0213,0.0212,0.0206,0.0206,0.0269,0.027,0,0,0,0,0,0,0,0,0,0,0,0.0211,0.0211,0.0213,0.0212,0.0206,0.0206,0.0269,0.027,0,0,0,0,0,0,0,0,0,0,0,0.0211,0.0211,0.021,0.0212,0.0206,0.0206,0.0269,0.0258,0,0,0,0,0,0,0,0,0,0,0.0256,0.0243,0.0211,0.021,0.0212,0.0206,0.0206,0.0257,0.0259,0.029,0,0.0277,0,0.0274,0.0275,0.0275,0,0,0,0.0221,0.0241,0.0237,0.021,0.0212,0.0206,0.0211,0.0257,0.026,0.0292,0.0277,0.0279,0.0275,0.0275,0.0276,0.031,0.0309,0,0,0.0221,0.0218,0.0235,0.0238,0.0196,0.0211,0.0211,0.0258,0.0258,0.0278,0.0281,0.0276,0.0276,0.0276,0.031,0.031,0,0,0,0.0216,0.0218,0.0211,0.0235,0.0228,0.0211,0.021,0.0256,0.0252,0.0281,0.0277,0.0276,0.0277,0.031,0.031,0.0259,0,0,0,0.0217,0.0215,0.0211,0.0211,0.0226,0.0233,0.0207,0.0249,0.0254,0.0277,0.0276,0.0278,0.031,0.031,0.0261,0.0235,0,0,0,0.0214,0.0215,0.0209,0.021,0.0204,0.0231,0.0231,0.0249,0.0252,0.0275,0.0278,0.031,0.031,0.0262,0.0238,0.0229,0,0,0,0.022,0.0205,0.0208,0.0187,0.0203,0.0192,0.023,0.0231,0.0246,0.0277,0.031,0.031,0.0263,0.024,0.023,0.0191,0,0,0,0.0206,0.0203,0.0189,0.0192,0.0171,0.0194,0.0184,0.022,0.0253,0.0302,0.0302,0.026,0.0238,0.0229,0.0165,0,0,0,0,0.0188,0.0181,0.0173,0.016,0.0154,0.0151,0.0183,0.0202,0.0233,0.0258,0.0265,0.0253,0.0249,0.0231,0.0308,0.0308,0.0308,0.0308,0.0308,0.0182,0.0169,0.0147,0.0133,0.0121,0.013,0.0135,0.017,0.0208,0.021,0.0215,0.0178,0.0157,0.0222,0.0222,0.0222,0.0222,0.0222,0.0221,0.0167,0.0151,0.0129,0.0103,0.0088,0.0079,0.0099,0.0119,0.0145,0.0176,0.0174,0.0183,0.0216,0.0217,0.0218,0.0219,0.0219,0.0219,0.022,0.0167,0.0156,0.0131,0.0085,0.0051,0.0042,0.0019,0.005,0.0096,0.0092,0.0092,0.0148,0.0149,0.0096,0.0096,0.0095,0.0095,0.0095,0.0095,0.0176,0.0151,0.0112,0.0064,0.0028,-0.0014,-0.0026,-0.0019,0.0021,0.0028,0.0079,0.0136,0.014,0.0143,0.0092,0.0093,0.0093,0.0093,0.0094,0.0187,0.0153,0.0108,0.0066,-0.0017,-0.0058,-0.0075,-0.0084,-0.0077,-0.0056,0.0005,0.001,0.0028,0.0035,0.0035,-0.0049,-0.005,-0.005,0,0.019,0.0171,0.0102,0.004,-0.0038,-0.0079,-0.0129,-0.0129,-0.0079,-0.0081,-0.0037,0.0033,0.0036,0.006,0.0065,0.0066,0,0,0,0.02,0.0171,0.0131,0.005,-0.0044,-0.011,-0.0145,-0.0149,-0.0097,-0.0109,-0.0068,-0.0063,0.0027,0.0085,0.0126,0.0131,0.0138,0,0]}]]